Location: Stigler
(35.2540°N, 95.1230°W)
Time: 08:39:25
(UTC-06:00)

Daily predictions for brighter satellites

Satellite Brightness Start Highest point End
(mag) Time Altitude Azimuth Time Altitude Azimuth Time Altitude Azimuth
SL-16 R/B 2.4 17:57:21 10° S 18:02:51 56° ESE 18:08:23 10° NNE
Thor Agena Rocket 3.7 17:58:24 10° NNE 18:03:38 84° WNW 18:08:46 10° SSW
Cosmos 1538 Rocket 4.5 17:59:07 10° S 18:04:03 41° ESE 18:09:02 10° NNE
SPOT 3 Rocket 3.6 17:59:04 10° SSE 18:04:14 88° ENE 18:09:25 10° NNW
Haruka 3.6 18:01:37 10° WSW 18:05:05 53° SSE 18:13:38 10° E
Meteor 1-27 4.4 17:59:45 10° N 18:05:29 56° E 18:11:11 10° SSE
Meteor 2-10 4.1 18:03:10 10° N 18:08:14 56° E 18:13:27 10° SSE
SL-14 R/B 3.6 18:05:36 10° SSW 18:09:30 70° W 18:13:29 10° N
Cosmos 1484 Rocket 2.9 18:07:40 10° SSE 18:11:30 54° ENE 18:15:25 10° N
BREEZE-M DEB (TANK) 2.9 18:06:08 10° NW 18:12:41 69° SW 18:15:33 10° SE
Cosmos 1340 Rocket 2.7 18:09:37 10° S 18:13:33 75° E 18:17:28 10° NNE
Cosmos 304 Rocket 3.8 18:09:47 10° SSW 18:14:36 85° ESE 18:19:25 10° NNE
Cosmos 2297 3.9 18:13:34 10° N 18:19:06 49° ENE 18:24:39 10° SE
Meteor 1-28 Rocket 3.4 18:18:27 10° NNE 18:22:03 47° E 18:25:39 10° S
Lacrosse 4 Rocket 3.0 18:21:28 10° NNE 18:23:49 15° NE 18:25:17 13° ENE
Cosmos 1151 Rocket 3.9 18:21:04 10° NNW 18:25:14 53° W 18:29:25 10° S
Tiangong 1 2.2 18:24:07 10° SSW 18:26:45 29° SE 18:28:39 15° E
Aureole 2 Rocket 4.4 18:23:44 10° SW 18:27:09 34° WNW 18:30:51 10° N
Cosmos 2279 Rocket 4.0 18:24:05 10° N 18:30:20 86° E 18:36:35 10° S
IDEFIX/ARIANE 42P 4.3 18:26:31 10° SSW 18:31:17 36° W 18:36:06 10° NNW
Cosmos 372 Rocket 4.5 18:28:12 10° NNW 18:33:15 64° WSW 18:38:16 10° S
Milstar 3 4.2 18:27:21 10° W 18:33:33 34° SSW 18:39:42 10° SE
Cosmos 2058 4.1 18:32:19 10° SSW 18:36:14 45° W 18:40:11 10° N
Cosmos 773 Rocket 4.0 18:33:33 10° S 18:38:35 58° ESE 18:43:42 10° NNE
NOAA 12 4.3 18:33:38 10° SE 18:38:38 47° ENE 18:43:40 10° N
Cosmos 1805 Rocket 3.8 18:36:17 10° S 18:40:43 77° W 18:45:11 10° N
Cosmos 1461 4.4 18:39:48 10° WSW 18:43:39 34° WNW 18:47:24 10° N
USA 215 4.0 18:40:52 15° E 18:45:20 33° NNE 18:51:02 10° NNW
SKYMED 2 4.3 18:41:50 10° N 18:46:05 55° WNW 18:50:18 10° SSW
Nadezhda 4 Rocket 4.0 18:39:57 10° S 18:46:08 70° E 18:52:26 10° N
Cosmos 2242 Rocket 4.1 18:42:42 10° NNE 18:46:46 35° E 18:50:50 10° SE
Cosmos 1626 2.2 18:43:41 10° S 18:47:25 78° W 18:51:11 10° N
Cosmos 1900 4.3 18:44:25 10° NNW 18:49:23 81° ENE 18:54:25 10° SSE
Sich 1 3.1 18:49:11 10° S 18:53:37 87° W 18:58:04 10° N
Cosmos 1356 Rocket 3.8 18:52:18 10° SSW 18:56:15 62° W 19:00:12 10° N
Aureole 1 Rocket 3.8 18:52:37 10° SSW 18:57:46 83° ESE 19:04:41 10° NNE
Lacrosse 5 rocket 3.0 18:55:03 10° WNW 18:58:34 34° SW 19:02:15 10° S
ALOS 2.8 18:56:45 10° SE 19:00:57 35° ENE 19:05:11 10° N
Coronas F rocket 1.3 19:01:01 10° SSW 19:03:22 63° W 19:03:52 46° NNW
Cosmos 1633 Rocket 3.2 18:59:40 10° S 19:04:03 76° W 19:08:28 10° N
Cosmos 1603 3.6 19:02:04 10° SSW 19:07:39 72° ESE 19:12:04 17° NNE
Cosmos 1092 Rocket 3.9 19:02:15 10° S 19:08:33 76° E 19:14:54 10° N
Delta 2 Rocket 4.0 19:06:42 10° SW 19:09:35 27° SSE 19:09:44 27° SSE
FengYun 1-2 T 4.4 19:05:19 10° SE 19:10:37 49° ENE 19:15:55 10° N
Cosmos 292 Rocket 3.6 19:06:30 10° S 19:11:13 71° ESE 19:14:08 23° NNE
Cosmos 1455 2.5 19:09:10 10° NNW 19:12:56 65° W 19:16:44 10° S
SJ-6B 3.2 19:18:37 10° S 19:22:39 69° WSW 19:26:48 10° NNW
Spot 2 Rocket 3.4 19:22:41 10° SSE 19:27:38 61° ENE 19:32:36 10° N
USA 229 DEB 4.2 19:22:19 10° SW 19:29:03 59° NW 19:34:38 16° NNE
USA 229 4.1 19:22:24 10° SW 19:29:08 60° NW 19:34:42 16° NNE
Iridium 4 Rocket 3.4 19:26:59 10° S 19:31:29 64° W 19:35:43 10° N
Cosmos 2195 Rocket 4.3 19:25:40 10° S 19:31:44 75° E 19:37:52 10° N
SL-19 R/B 4.3 19:34:52 10° SSE 19:40:48 82° WSW 19:46:27 10° NNW
NOSS 3-1 (A) 3.5 19:37:24 10° S 19:42:20 49° SE 19:42:20 49° SE
Cosmos 2369 Rocket 3.7 19:40:38 10° N 19:42:51 22° N 19:42:51 22° N
Meteor 2-20 Rocket 4.4 19:40:51 10° S 19:46:24 60° ESE 19:46:24 60° ESE
Resurs 01 Rocket 1.8 19:45:15 10° S 19:49:47 72° W 19:54:08 10° NNW
Cosmos 1933 Rocket 4.5 19:47:32 10° SSW 19:51:48 48° W 19:53:46 28° NNW
Cosmos 1680 Rocket 4.4 19:55:14 10° SW 20:00:12 45° WNW 20:02:30 28° NNW
Lacrosse 4 Rocket 2.8 19:58:53 10° NW 20:01:46 34° WNW 20:01:46 34° WNW
Tiangong 1 4.5 19:59:58 10° W 20:00:16 12° W 20:00:16 12° W
Cosmos 1655 Rocket 4.1 19:59:26 10° S 20:05:49 78° W 20:09:16 29° N
FENGYUN 3A 4.5 20:04:46 10° S 20:09:55 48° W 20:15:06 10° NNW
NOSS 3-1 (C) 3.7 20:14:58 10° SW 20:20:20 59° WNW 20:20:20 59° WNW
Cosmos 1943 3.9 20:19:05 10° SW 20:23:49 51° W 20:23:49 51° W
USA 215 3.3 20:28:14 71° WSW 20:28:14 71° WSW 20:34:30 10° NW
